Regional Weather Roundup
Issued by NWS

Home | Current Version | Previous Version | Graphics & Text | Print | Product List | Glossary Off
Versions: 1 2 3 4 5 6 7 8 9 10 11 12 13 14 15 16 17 18 19 20 21 22 23 24 25 26 27 28 29 30 31 32 33 34 35 36 37 38 39 40 41 42 43 44 45 46 47 48 49 50

000
ASUS43 KDMX 171501
RWRIA

WEATHER ROUNDUP FOR IOWA
NATIONAL WEATHER SERVICE DES MOINES IA
1000 AM CDT THU AUG 17 2017

NOTE: "FAIR" INDICATES FEW OR NO CLOUDS BELOW 12,000 FEET WITH NO
SIGNIFICANT WEATHER AND/OR OBSTRUCTIONS TO VISIBILITY.

* - THESE STATIONS ARE NOT NWS STATIONS...THUS NOT UNDER NWS
QUALITY CONTROL.  THEY ALSO DO NOT REPORT WEATHER SUCH
AS PRECIPITATION OR FOG.

IAZ001>003-012>014-020>022-031>034-043>046-171600-
   NORTHWEST IOWA

CITY           SKY/WX    TMP DP  RH WIND       PRES   REMARKS
CARROLL *      CLOUDY    68  63  83 NW16G22   29.85R
CHEROKEE *     CLOUDY    66  61  85 W13G20    29.87R
DENISON *      PTSUNNY   68  61  77 NW17G25   29.89R
LE MARS *      MOSUNNY   68  61  77 NW12G20   29.89R
ORANGE CITY *  CLOUDY    66  63  88 NW16G22   29.88R
SHELDON *      CLOUDY    64  59  82 NW14G22   29.86R
SIOUX CITY     SUNNY     70  61  73 NW14G24   29.90R
SPENCER        CLOUDY    66  61  84 W16G23    29.84R
STORM LAKE *   PTSUNNY   63  61  94 W15       29.85R
$$

IAZ055>058-069>071-079>083-090>094-171600-
   SOUTHWEST IOWA

CITY           SKY/WX    TMP DP  RH WIND       PRES   REMARKS
ATLANTIC *     PTSUNNY   68  63  83 W16G23    29.88R
AUDUBON *      CLOUDY    68  63  83 W8G17     29.88R
CLARINDA *     MOSUNNY   70  63  78 NW15G22   29.92R
COUNCIL BLFS * SUNNY     70  63  78 NW12G18   29.91R
CRESTON *      CLOUDY    68  61  77 NW17G23   29.89R
HARLAN  *      SUNNY     68  61  77 NW21G26   29.92R
LAMONI         CLOUDY    68  63  84 W13       29.88R
RED OAK *      SUNNY     72  63  73 NW13G24   29.89S
SHENANDOAH *   SUNNY     70  63  78 NW10G20   29.92R
$$

IAZ047>049-059>061-072>074-084-171600-
   CENTRAL IOWA

CITY           SKY/WX    TMP DP  RH WIND       PRES   REMARKS
AMES           CLOUDY    71  66  84 W17G26    29.80R
ANKENY *       CLOUDY    73  63  68 W15G26    29.82R
BOONE *        CLOUDY    70  63  78 W20G29    29.81R
CHARITON *     PTSUNNY   72  64  78 NW13G21   29.84R
DES MOINES     CLOUDY    73  63  70 W20G25    29.81R
GRINNELL*      MOSUNNY   72  64  77 W17G24    29.80S
KNOXVILLE *    MOSUNNY   75  63  64 W14G24    29.80R
MARSHALLTOWN   PTSUNNY   73  66  78 W15G28    29.77R
NEWTON *       HAZE      73  66  78 W13G21    29.80S VSB 1/4
PELLA *        MOSUNNY   74  63  69 W14G24    29.82R
PERRY *        CLOUDY    70  65  85 W10G21    29.84R
$$

IAZ004>006-015-016-023>025-035-036-171600-
   NORTH CENTRAL IOWA

CITY           SKY/WX    TMP DP  RH WIND       PRES   REMARKS
ALGONA *       PTSUNNY   68  66  94 W14G23    29.79R
CLARION *      CLOUDY    70  66  88 W21G28    29.78R
ESTHERVILLE    CLOUDY    66  65  96 W16G24    29.79R
FORT DODGE *   CLOUDY    70  63  78 W12G22    29.81S
MASON CITY     CLOUDY    69  64  84 W23G31    29.74R
FOREST CITY *  CLOUDY    68  63  83 W20G28    29.74R
WEBSTER CITY * CLOUDY    70  64  83 W21G26    29.77S
IOWA FALLS *   CLOUDY    71  65  81 W18G26    29.78R
$$

IAZ007>011-017>019-026>030-037>042-050>054-066-171600-
   NORTHEAST IOWA

CITY           SKY/WX    TMP DP  RH WIND       PRES   REMARKS
CEDAR RAPIDS   CLOUDY    73  66  78 W16       29.75S
CHARLES CITY * CLOUDY    70  66  88 W17G29    29.71R
CLINTON *      PTSUNNY   71  65  81 W16       29.77R
DECORAH *      CLOUDY    70  64  83 W10G25    29.66R
DUBUQUE        CLOUDY    68  65  90 SW18      29.73F
MONTICELLO *   CLOUDY    72  66  83 W18G24    29.74R
OELWEIN *      MOSUNNY   73  66  78 W14G23    29.72S
WATERLOO       PTSUNNY   73  63  70 W18G25    29.72S
$$

IAZ064-065-067-068-078-171600-
   EAST CENTRAL IOWA

CITY           SKY/WX    TMP DP  RH WIND       PRES   REMARKS
DAVENPORT      PTSUNNY   73  64  73 SW13G22   29.80S
IOWA CITY      CLOUDY    73  64  73 W12       29.79R
MUSCATINE *    PTSUNNY   75  64  69 W14       29.79S
QUAD CITIES    MOSUNNY   76  65  68 W13G21    29.77S
$$

IAZ062-063-075>077-085>089-095>099-171600-
   SOUTHEAST IOWA

CITY           SKY/WX    TMP DP  RH WIND       PRES   REMARKS
BURLINGTON     MOSUNNY   76  66  71 W13G20    29.81S
FAIRFIELD *    PTSUNNY   75  64  69 W14G22    29.81R
FORT MADISON * MOSUNNY   75  66  73 W10       29.83R
KEOKUK *       PTSUNNY   77  66  69 SW15      29.83R
OSKALOOSA *    PTSUNNY   73  65  75 W14       29.82R
OTTUMWA        CLOUDY    74  64  71 W14G22    29.82R
WASHINGTON *   CLOUDY    72  66  83 W15       29.81R
$$

ABBREVIATIONS USED IN REMARKS
   TC - TEMPERATURES IN CELSIUS
  WCI - WIND CHILL INDEX
   HX - HEAT INDEX
  VSB - VISIBILITY
$$




USA.gov is the U.S. government's official web portal to all federal, state and local government web resources and services.